Flag for U.S.A. Weather past 2 weeks in Provo, Utah, U.S.A.

Now
37 °F

Overcast.


Feels Like: 31 °F
Forecast: 34 / 41 °F
Wind: 8 mph from East

Location: Provo Municipal

Current Time: Dec 21, 2014 at 6:37:39 AM

Latest Report: Dec 21, 2014 at 6:15 AM


Visibility: 10 mi

Pressure: 30.04 "Hg

Humidity: 87%

Dew point: 34 °F

Location of ProvoLocation

Historic Weather in Provo — Graph

°F

Provo temperature yesterday

Maximum temperature yesterday: 39 °F (at 10:59 AM)
Minimum temperature yesterday: 34 °F (at 6:15 AM)
Average temperature yesterday: 36 °F

Past Weeks' High & Low Weather Summary

 TemperatureHumidityPressure
High63 °F (Dec 12, 12:51 PM)100% (Dec 18, 8:58 AM)30.43 "Hg (Dec 18, 8:58 AM)
Low21 °F (Dec 15, 6:35 AM)29% (Dec 12, 1:59 PM)29.84 "Hg (Dec 12, 9:55 PM)
Average36 °F74%30.14 "Hg
* Reported Dec 6 5:15 AM — Dec 21 5:35 AM, Provo, Weather by CustomWeather, © 2014

Note: Actual official high and low records may vary slightly from our data, if they occured in-between our weather recording intervals... More about our weather records

Advertising

Provo weather history for previous 24 hours

 ConditionsComfort  
Time TempWeatherWind HumidityBarometerVisibility
5:35 AM
Dec 21
39 °FOvercast.6 mph81%30.04 "Hg10 mi
5:15 AM39 °FOvercast.9 mph81%30.04 "Hg10 mi
4:55 AM39 °FOvercast.5 mph81%30.04 "Hg10 mi
4:35 AM39 °FMostly cloudy.No wind81%30.04 "Hg10 mi
4:15 AM37 °FMostly cloudy.3 mph81%30.03 "Hg10 mi
3:55 AM37 °FMostly cloudy.No wind87%30.04 "Hg10 mi
3:35 AM37 °FOvercast.6 mph87%30.05 "Hg10 mi
3:15 AM36 °FPassing clouds.No wind93%30.05 "Hg10 mi
2:55 AM36 °FOvercast.No wind93%30.04 "Hg10 mi
2:35 AM36 °FOvercast.No wind93%30.05 "Hg10 mi
2:15 AM36 °FOvercast.3 mph93%30.05 "Hg10 mi
1:55 AM37 °FOvercast.No wind87%30.05 "Hg10 mi
1:35 AM36 °FOvercast.No wind87%30.06 "Hg10 mi
1:15 AM36 °FOvercast.No wind87%30.07 "Hg10 mi
12:55 AM37 °FOvercast.5 mph87%30.06 "Hg10 mi
12:35 AM36 °FOvercast.5 mph93%30.07 "Hg10 mi
12:15 AM36 °FMostly cloudy.3 mph93%30.08 "Hg10 mi
11:55 PM
Dec 20
36 °FOvercast.No wind93%30.09 "Hg10 mi
11:35 PM36 °FOvercast.3 mph87%30.09 "Hg10 mi
11:15 PM36 °FOvercast.No wind93%30.08 "Hg10 mi
10:55 PM36 °FPassing clouds.No wind87%30.08 "Hg10 mi
10:35 PM37 °FPassing clouds.6 mph87%30.07 "Hg10 mi
10:15 PM37 °FOvercast.5 mph87%30.10 "Hg10 mi
9:55 PM36 °FOvercast.6 mph93%30.09 "Hg10 mi
9:35 PM36 °FOvercast.5 mph93%30.10 "Hg10 mi
9:15 PM37 °FOvercast.3 mph87%30.10 "Hg10 mi
8:55 PM37 °FOvercast.No wind87%30.09 "Hg15 mi
7:55 PM37 °FPassing clouds.No wind87%30.09 "Hg15 mi
6:59 PM36 °FPartly cloudy.3 mph93%30.10 "Hg15 mi
5:53 PM37 °FPassing clouds.No wind87%30.10 "Hg15 mi
4:50 PM37 °FOvercast.No wind87%30.08 "Hg10 mi
3:53 PM37 °FScattered showers. Overcast.3 mph87%30.10 "Hg10 mi
2:50 PM39 °FMore clouds than sun.No wind81%30.09 "Hg10 mi
1:51 PM39 °FScattered showers. Overcast.No wind81%30.11 "Hg10 mi
12:59 PM39 °FScattered showers. Overcast.No wind75%30.12 "Hg5 mi
11:49 AM39 °FScattered showers. Overcast.No wind81%30.12 "Hg10 mi
10:59 AM39 °FMostly cloudy.No wind75%30.12 "Hg10 mi
9:53 AM37 °FPartly sunny.No wind81%30.12 "Hg10 mi
8:50 AM36 °FOvercast.No wind81%30.12 "Hg10 mi
7:50 AM34 °FOvercast.No wind87%30.13 "Hg10 mi
6:55 AM34 °FPassing clouds.No wind87%30.13 "Hg10 mi
6:35 AM34 °FPassing clouds.No wind87%30.13 "Hg10 mi
6:15 AM34 °FPassing clouds.No wind87%30.12 "Hg10 mi
Weather by CustomWeather, © 2014

See weather overviewHow to use our weather pages